www.pogodaiklimat.ru

Погода и климат >> Архив погоды >> Россия >> Якутия >> Югоренок


АРХИВ ПОГОДЫ в Югоренке

Время (UTC), дата Ветер
(напр.,м/с)
 
Видим.   Явления Облачность Т
(С)
Тd
(С)
f
(%)
Тe
(С)
Тes
(С)
Комфортность P
(гПа)
Po
(гПа)
Тmin
(С)
Tmax
(С)
R
(мм)
R24
(мм)
S
(см)
03 10.07 СЗ 2 20 км дым 3/0
[Ci fib]
+22.2 +10.4 47 +24 +37 комфорт 1008.5 965.4
06 10.07 В 1 20 км дым ясно +25.3 +9.7 37 +26 +37 жарко 1006.2 963.6
09 10.07 В 1 20 км дым ясно +25.8 +11.9 42 +27 +30 жарко 1005.0 962.6 +25.8
12 10.07 С 1 20 км дым 3/0
[Ac trans]
+18.3 +13.2 72 +20 +20 1006.6 963.0
15 10.07 С 2 20 км мгла 4/4 1500 м
[Sc]
+13.7 +10.9 83 +13 +13 1008.6 964.3
18 10.07 С 1 20 км дым ясно +9.6 +7.7 88 +9 +9 1009.9 964.9
21 10.07 штиль 0 20 км дым ясно +13.9 +9.0 72 +14 +17 1010.8 966.4 +9.3
00 11.07 В 3 50 км 8/5 1500 м
[Sc Ac trans]
+16.9 +11.0 68 +17 +19 1010.3 966.3
03 11.07 В 2 20 км дым 8/0
[Ac cast Ci fib]
+19.0 +11.8 63 +20 +29 1009.7 966.0
06 11.07 З 2 20 км дым 1/0
[Ci fib]
+23.0 +13.4 55 +26 +35 жарко 1007.8 964.9
09 11.07 З 1 50 км ясно +23.8 +13.8 53 +26 +28 жарко 1006.8 964.0 +24.2
12 11.07 С 2 50 км 1/1 1500 м
[Sc]
+16.4 +12.2 76 +17 +17 1008.2 964.3
15 11.07 С 1 50 км ясно +10.6 +10.2 97 +10 +10 1010.1 965.2
18 11.07 С 1 20 км туман на расстоянии 1/0
[Ci fib]
+7.4 +7.2 99 +6 +6 1011.6 965.6
21 11.07 штиль 0 4000 м туман местами 1/0
[Ci fib]
+10.4 +9.4 94 +10 +13 1010.9 966.0 +7.0
00 12.07 В 1 50 км 1/0
[Ci fib]
+18.6 +13.1 70 +20 +32 1009.6 965.6
03 12.07 Ю 1 20 км дым 1/0
[Ci fib]
+26.0 +13.9 47 +28 +44 жарко 1007.0 964.6
06 12.07 В 1 10 км дым 3/0
[Ac lent Ci fib]
+29.1 +11.7 34 +30 +39 жарко 1004.8 962.9
09 12.07 штиль 0 20 км дым 4/0
[Ac trans Cs]
+26.6 +15.5 51 +30 +32 душно 1004.7 962.4 +29.6
12 12.07 С 1 20 км дым 4/0
[Ac trans Ci sp]
+19.4 +14.8 75 +22 +22 комфорт 1006.4 963.0
15 12.07 С 1 20 км дым 3/0
[Ci fib]
+13.9 +11.7 87 +14 +14 1007.1 962.9
18 12.07 штиль 0 20 км дым 5/0
[Ac trans Ci fib]
+14.1 +12.8 92 +14 +14 1006.5 986.6
21 12.07 С 1 20 км дым 4/3 1000 м
[Cb cap Ci fib]
+16.2 +12.4 78 +17 +19 1009.9 965.9 +11.2
00 13.07 С 1 20 км дым 4/3 1500 м
[Sc Ci fib]
+21.4 +13.1 59 +24 +32 комфорт 1008.7 965.5
03 13.07 В 1 20 км дым 8/6 1500 м
[Sc Ci fib]
+24.9 +7.8 34 +25 +31 комфорт 1007.9 965.1
06 13.07 С 2 20 км гроза без осадков {ливн. осадки} 9/8 1000 м
[Cb calv Ci fib]
+24.3 +14.0 53 +27 +28 жарко 1006.4 963.7
09 13.07 С 2 20 км дым {гроза, ливн. осадки} 9/3 1500 м
[Sc Ac trans Ci fib]
+20.6 +13.3 63 +24 +24 комфорт 1006.6 963.3 +27.4 0.0
12 13.07 С 1 20 км дым {гроза, ливн. осадки} 8/0 1500 м
[Ac trans Ci fib]
+18.0 +14.2 78 +19 +19 1006.9 963.3
15 13.07 С 1 20 км дым 6/6 1500 м
[Sc]
+13.7 +11.8 88 +14 +14 1008.6 964.3
18 13.07 С 2 20 км дым 3/3 1500 м
[Sc]
+11.6 +10.6 94 +10 +10 1009.3 964.7
21 13.07 С 2 20 км дым 3/0 1500 м
[Cs]
+13.4 +10.9 85 +13 +15 1009.8 965.4 +11.5
00 14.07 СВ 1 20 км дым 4/0
[Ci]
+21.0 +14.3 66 +25 +36 комфорт 1008.2 965.0
03 14.07 В 2 50 км 5/4 1500 м
[Cu hum Ci fib]
+25.0 +15.1 54 +28 +36 жарко 1007.2 964.7
06 14.07 Ю 1 50 км 9/3 1500 м
[Cu hum Cs]
+27.1 +12.3 40 +29 +35 жарко 1005.4 963.1
09 14.07 СВ 1 50 км 10/1 1500 м
[Cu hum Cs]
+27.6 +14.1 44 +30 +31 жарко 1004.6 962.4 +27.7
12 14.07 С 2 50 км 4/3 1500 м
[Sc Ac lent Ci fib]
+19.0 +14.0 73 +21 +21 комфорт 1005.8 962.5
15 14.07 С 2 50 км 5/0
[Ci]
+14.4 +12.4 88 +14 +14 1007.4 963.2
18 14.07 С 2 50 км 1/0
[Ci fib]
+10.8 +9.8 94 +9 +9 1008.6 963.8
21 14.07 штиль 0 50 км 3/0
[Ci fib]
+13.8 +11.0 83 +13 +17 1008.6 964.3 +9.2
00 15.07 Ю 1 10 км дым ясно +21.3 +13.1 59 +24 +35 комфорт 1007.6 964.5
03 15.07 Ю 1 10 км дым 3/3 1500 м
[Cu med, cong]
+26.5 +13.3 44 +28 +40 жарко 1005.7 963.3
06 15.07 З 2 20 км дым 8/8 1000 м
[Cb cap]
+29.1 +14.4 41 +31 +33 жарко 1004.1 962.2
09 15.07 С 1 20 км дым 8/1 1500 м
[Cu med, cong Ac trans Cs]
+28.2 +15.7 47 +31 +32 душно 1003.8 961.8 +29.7
12 15.07 СЗ 1 20 км дым 8/5 1500 м
[Sc Ac trans Ci fib]
+21.2 +15.5 70 +24 +24 комфорт 1005.4 962.4
15 15.07 З 1 20 км дым 3/0
[Ci fib]
+14.5 +13.4 93 +15 +15 1006.8 962.7
18 15.07 штиль 0 20 км дым 4/0
[Ac cast Ci fib]
+12.3 +11.7 96 +12 +12 1007.5 963.0
21 15.07 штиль 0 10 км дым 3/0
[Ac cast Ci fib]
+14.4 +13.0 91 +14 +17 1007.3 963.1 +10.4
00 16.07 Ю 2 10 км дым 1/0
[Ci fib]
+21.3 +14.7 66 +24 +34 комфорт 1005.6 962.6
03 16.07 С 4 10 км слаб. ливневой дождь, в посл. час гроза 10/10 1000 м
[Cb calv]
+17.9 +14.6 81 +18 +18 1005.9 962.4
06 16.07 штиль 0 20 км слаб. ливневой дождь, в посл. час гроза 10/10 1000 м
[Cb calv]
+17.3 +16.5 95 +17 +17 1005.8 962.2
09 16.07 З 1 20 км дым {гроза, ливн. осадки} 3/1 1500 м
[Sc Ac trans]
+20.0 +16.2 79 +24 +25 комфорт 1004.7 961.5 +26.7 2
12 16.07 С 1 10 км дым {гроза, ливн. осадки} 4/3 1500 м
[Sc Ac trans]
+17.1 +16.7 97 +18 +18 1004.6 961.0
15 16.07 В 1 20 км слаб. ливневой дождь, в посл. час гроза 10/10 1000 м
[Cb calv]
+16.4 +15.5 94 +17 +17 1005.5 961.7
18 16.07 С 2 10 км туман на расстоянии {гроза, ливн. осадки} 10/0
[Ac trans Ci fib]
+12.2 +11.6 96 +11 +11 1005.5 961.1
21 16.07 штиль 0 50 м туман ?/? +13.0 +12.8 99 +12 +12 1005.9 961.6 +12.1 2
00 17.07 Ю 2 20 км дым {туман} 5/1 1500 м
[Cu hum Cs]
+19.1 +15.7 81 +21 +29 комфорт 1004.1 960.9

 

Местоположение метеостанции Югоренок (Якутия, Россия): широта 59.77 долгота 137.60 высота над уровнем моря 384 м.

В архиве по умолчанию представлена погода в Югоренке за последнюю неделю. Архивные данные за месяц целиком и за предыдущие месяцы, начиная с января 2011 года, Вы можете получить, выбрав интересующий диапазон дат из раскрывающегося списка и нажав кнопку "Ввод!".


*Определитесь, кто Вы:
робот инопланетянин человек

Внимание! Время в таблицах - всемирное. Для получения местного времени необходимо прибавить поправку, которая равна 9 ч.

Смотрите также архив погоды в соседних городах и на ближайших метеорологических станциях:

Погода в Усть-Юдоме (Якутия, Россия) (156 км)
Погода в Усть-Мае (Якутия, Россия) (189 км)
Погода в Нелькане (Хабаровский край, Россия) (251 км)
Погода в Усть-Миле (Якутия, Россия) (259 км)
Погода в Охотском Перевозе (Якутия, Россия) (260 км)
Погода в Улье (Хабаровский край, Россия) (262 км)
Погода в Арке (Хабаровский край, Россия) (264 км)
Погода в Уеге (Хабаровский край, Россия) (301 км)
Погода в Охотске (Хабаровский край, Россия) (319 км)
Погода в Теплом Ключе (Якутия, Россия) (338 км)

Пояснения к столбцам:

Ветер - указаны скорость ветра в м/с - средняя за 10 мин, порывы в срок и между сроками (в фигурных скобках) и направление, откуда дует ветер: С - северный, СВ - северо-восточный, В - восточный, ЮВ - юго-восточный, Ю - южный, ЮЗ - юго-западный, З - западный, СЗ - северо-западный.
Видимость - горизонтальная дальность видимости в метрах или километрах. При видимости от 1 до 10 км при отсутствии осадков обычно наблюдается дымка, при ухудшении видимости до 1 км и менее - туман. В сухую погоду видимость может ухудшаться дымом, пылью или мглою.
Явления - указаны атмосферные явления, наблюдавшиеся в срок или в последний час перед сроком; фигурными скобками обозначены явления, наблюдавшиеся между сроками (за 1-3 часа до срока); квадратными скобками обозначены град или гололедные отложения с указанием их диаметра в мм.
Облачность - указаны через наклонную черту общая и нижняя облачность в баллах и высота нижней границы облаков в метрах; квадратными скобками обозначены формы облаков: Ci - перистые, Cs - перисто-слоистые, Cc - перисто-кучевые, Ac - высококучевые, As - высокослоистые, Sc - слоисто-кучевые, Ns - слоисто-дождевые, Cu - кучевые, Cb - кучево-дождевые. Подробнее классификацию облаков см. в Атласе облаков (PDF).
T - Температура воздуха - температура, измеренная на высоте 2 м над землей.
Td - Температура точки росы - температура, при понижении до которой содержащийся в воздухе водяной пар достигнет насыщения.
f - Относительная влажность воздуха - влажноcть воздуха, измеренная на высоте 2 м над землей.
Te - Эффективная температура - температура, которую ощущает одетый по сезону человек в тени. Характеристика душности погоды. При расчете учитывается влияние влажности воздуха и скорости ветра на теплоощущения человека.
Tes - Эффективная температура на солнце - температура, которую ощущает человек, с поправкой на солнечный нагрев. Характеристика знойности погоды. Зависит от высоты солнца над горизонтом, облачности и скорости ветра. Ночью, в пасмурную погоду, а также при ветре 12 м/с и более поправка равна нулю.
P - Атмосферное давление - приведенное к уровню моря атмосферное давление.
Po - Атмосферное давление - измеренное на уровне метеостанции атмосферное давление.
Tmin - Минимальная температура - минимум температуры воздуха на высоте 2 м над землей.
Tmax - Максимальная температура - максимум температуры воздуха на высоте 2 м над землей.
R - Количество осадков - Количество выпавших осадков за период времени, мм. При наведении курсора мыши на число - период времени, за который выпало указанное количество осадков.
R24 - Количество осадков - Количество выпавших осадков за 24 часа, мм.
S - Снежный покров - Высота снежного покрова, см. При наведении курсора мыши на число - состояние снежного покрова и степень покрытия местности в баллах.